1498446000.34,64955,21.31,73844.0,5.71,4.97,4.97,0,*75
1498446001.57,64956,21.38,73848.0,5.67,4.97,5.01,0,*7F
1498446002.8,64957,21.31,73846.5,5.67,4.97,4.97,0,*70
1498446004.05,64958,21.38,73850.0,5.69,5.01,5.01,0,*71
1498446005.31,64959,21.31,73844.0,5.69,5.01,5.01,0,*70
1498446006.56,64960,21.31,73846.3,5.69,5.01,5.05,0,*7E
1498446007.81,64961,21.31,73844.3,5.69,4.97,5.01,0,*75
1498446009.07,64962,21.31,73846.8,5.69,5.01,5.01,0,*78
1498446010.32,64963,21.31,73844.8,5.69,5.05,5.01,0,*7D
1498446011.57,64964,21.31,73844.8,5.69,5.01,5.05,0,*7A
1498446012.83,64965,21.31,73844.0,5.69,5.01,5.01,0,*7F
1498446014.09,64966,21.31,73846.3,5.69,5.05,5.01,0,*78
1498446015.34,64967,21.31,73846.3,5.69,5.01,5.01,0,*7D
1498446016.57,64968,21.38,73848.3,5.71,5.01,5.01,0,*7B
1498446017.82,64969,21.31,73846.8,5.73,5.05,5.05,0,*78
1498446019.08,64970,21.31,73846.5,5.69,5.01,5.01,0,*7B
1498446020.31,64971,21.31,73846.5,5.71,5.05,5.01,0,*77
1498446021.53,64972,21.38,73848.0,5.71,5.01,5.05,0,*74
1498446022.76,64973,21.31,73848.3,5.71,5.01,5.05,0,*75
1498446023.98,64974,21.31,73846.0,5.71,5.01,5.05,0,*72
1498446025.21,64975,21.31,73846.0,5.71,5.01,5.01,0,*77
1498446026.44,64976,21.31,73846.0,5.71,5.01,5.01,0,*74
1498446027.67,64977,21.31,73846.5,5.71,5.01,4.97,0,*7B
1498446028.89,64978,21.31,73846.0,5.71,4.97,4.97,0,*7A
1498446030.12,64979,21.31,73846.0,5.71,4.97,4.97,0,*7B
1498446031.35,64980,21.31,73844.0,5.71,4.97,4.97,0,*7D
1498446032.54,64981,21.31,73844.8,5.71,4.97,4.89,0,*73
1498446033.77,64982,21.31,73846.5,5.71,4.97,4.97,0,*7F
1498446034.99,64983,21.31,73844.0,5.71,4.97,4.97,0,*7E
1498446036.24,64984,21.31,73846.5,5.69,4.97,4.97,0,*70
1498446037.44,64985,21.31,73848.5,5.71,4.89,4.97,0,*77
1498446038.67,64986,21.31,73844.0,5.71,4.97,4.97,0,*7B
1498446039.89,64987,21.31,73848.8,5.71,4.97,4.97,0,*7A
1498446041.15,64988,21.31,73846.3,5.69,4.97,4.97,0,*7C
1498446042.4,64989,21.31,73844.8,5.69,4.97,4.97,0,*7D
1498446043.65,64990,21.31,73844.8,5.69,4.97,5.01,0,*7B
1498446044.9,64991,21.31,73844.8,5.69,4.97,5.05,0,*7E
1498446046.16,64992,21.31,73846.0,5.69,5.01,5.01,0,*77
1498446047.41,64993,21.38,73850.5,5.69,5.01,5.01,0,*76
1498446048.67,64994,21.31,73846.3,5.69,5.01,5.01,0,*71
1498446049.93,64995,21.31,73846.0,5.69,5.01,5.01,0,*70
1498446051.18,64996,21.31,73842.8,5.69,5.01,5.01,0,*73
1498446052.41,64997,21.31,73846.3,5.71,5.01,5.01,0,*7B
1498446053.66,64998,21.31,73846.5,5.69,5.01,5.05,0,*79
1498446054.91,64999,21.31,73848.0,5.69,5.01,5.05,0,*78
1498446056.17,65000,21.31,73844.8,5.69,5.01,5.01,0,*74
1498446057.43,65001,21.31,73846.3,5.69,5.01,5.01,0,*75
1498446058.68,65002,21.31,73848.8,5.69,5.01,5.01,0,*76
1498446059.93,65003,21.31,73846.3,5.69,5.01,4.97,0,*79
1498446061.19,65004,21.31,73846.5,5.69,4.97,4.97,0,*70
1498446062.41,65005,21.31,73846.5,5.69,4.97,4.89,0,*7E
1498446063.66,65006,21.31,73846.8,5.69,4.97,4.97,0,*72
1498446064.88,65007,21.31,73844.0,5.69,4.89,4.97,0,*7C
1498446066.11,65008,21.31,73846.3,5.69,4.89,4.97,0,*73
1498446067.3,65009,21.31,73844.5,5.69,4.89,4.89,0,*7D
1498446068.5,65010,21.31,73844.3,5.69,4.85,4.89,0,*79
1498446069.69,65011,21.31,73844.5,5.69,4.85,4.89,0,*78
1498446070.86,65012,21.31,73846.8,5.67,4.81,4.85,0,*7D
1498446072.05,65013,21.31,73846.3,5.69,4.85,4.89,0,*7A
1498446073.25,65014,21.31,73840.0,5.67,4.85,4.93,0,*78
1498446074.44,65015,21.31,73844.8,5.69,4.85,4.89,0,*7C
1498446075.64,65016,21.31,73844.5,5.69,4.85,4.81,0,*77
1498446076.83,65017,21.31,73844.5,5.69,4.85,4.85,0,*72
1498446078.03,65018,21.31,73846.5,5.67,4.85,4.97,0,*70
1498446079.2,65019,21.31,73846.8,5.67,4.85,4.81,0,*76
1498446080.37,65020,21.31,73846.0,5.67,4.85,4.85,0,*78
1498446081.54,65021,21.31,73846.8,5.67,4.85,4.81,0,*7D
1498446082.71,65022,21.31,73846.0,5.67,4.85,4.85,0,*7A
1498446083.89,65023,21.31,73844.3,5.67,4.85,4.85,0,*7B
1498446085.11,65024,21.31,73844.0,5.69,4.97,4.89,0,*7D
1498446086.28,65025,21.31,73846.0,5.67,4.85,4.85,0,*7D
1498446087.48,65026,21.31,73846.5,5.67,4.85,4.93,0,*79
1498446088.67,65027,21.31,73848.0,5.69,4.89,4.89,0,*71
1498446089.89,65028,21.31,73846.8,5.69,4.97,4.89,0,*71
1498446091.12,65029,21.31,73844.5,5.67,4.93,4.93,0,*71
1498446092.35,65030,21.31,73846.5,5.67,4.93,4.93,0,*79
1498446093.55,65031,21.31,73844.8,5.67,4.93,4.85,0,*7F
1498446094.78,65032,21.31,73846.5,5.67,4.93,4.93,0,*7B
1498446096.01,65033,21.31,73850.5,5.67,4.93,4.93,0,*7A
1498446097.27,65034,21.31,73844.5,5.69,4.97,5.01,0,*7D
1498446098.5,65035,21.31,73846.0,5.67,4.97,5.01,0,*72
1498446099.73,65036,21.31,73846.3,5.67,4.93,4.97,0,*7B
1498446100.99,65037,21.31,73842.8,5.69,4.97,5.01,0,*7E
1498446102.21,65038,21.31,73842.8,5.67,4.93,4.97,0,*75
1498446103.44,65039,21.31,73846.0,5.67,4.93,4.97,0,*74
1498446104.7,65040,21.31,73844.0,5.69,4.97,5.01,0,*7E
1498446105.93,65041,21.31,73846.3,5.67,4.93,4.97,0,*7B
1498446107.16,65042,21.31,73846.0,5.67,4.93,4.97,0,*78
1498446108.39,65043,21.31,73844.5,5.67,4.93,4.97,0,*79
1498446109.62,65044,21.31,73844.0,5.67,4.93,4.97,0,*7E
1498446110.84,65045,21.31,73844.3,5.67,4.93,4.97,0,*7F
1498446112.07,65046,21.31,73846.5,5.67,4.93,4.97,0,*7C
1498446113.3,65047,21.31,73842.8,5.67,4.93,4.97,0,*7D
1498446114.53,65048,21.31,73840.5,5.67,4.93,4.97,0,*72
1498446115.79,65049,21.31,73840.0,5.69,4.97,5.01,0,*77
1498446117.04,65050,21.31,73842.8,5.69,4.93,4.97,0,*75
1498446118.27,65051,21.31,73846.3,5.67,4.93,4.93,0,*7E
1498446119.47,65052,21.31,73844.3,5.67,4.85,4.93,0,*7A
1498446120.67,65053,21.31,73846.3,5.67,4.93,4.85,0,*7B
1498446121.9,65054,21.31,73846.3,5.67,4.93,4.93,0,*7B
1498446123.13,65055,21.31,73846.3,5.67,4.93,4.93,0,*7A
1498446124.36,65056,21.31,73844.8,5.67,4.93,4.93,0,*79
1498446125.59,65057,21.31,73846.3,5.67,4.93,4.93,0,*78
1498446126.82,65058,21.31,73844.0,5.67,4.93,4.93,0,*77
1498446128.05,65059,21.31,73844.8,5.67,4.93,4.93,0,*76
1498446129.28,65060,21.31,73842.5,5.67,4.93,4.93,0,*7C
1498446130.51,65061,21.31,73844.0,5.67,4.93,4.93,0,*7D
1498446131.74,65062,21.31,73842.8,5.67,4.93,4.93,0,*7E
1498446132.97,65063,21.31,73844.3,5.67,4.93,4.93,0,*7F
1498446134.2,65064,21.31,73840.8,5.67,4.93,4.93,0,*78
1498446135.43,65065,21.31,73840.8,5.67,4.93,4.93,0,*79
1498446136.66,65066,21.31,73840.3,5.67,4.93,4.93,0,*7A
1498446137.89,65067,21.31,73844.8,5.67,4.93,4.93,0,*7B
1498446139.11,65068,21.31,73844.5,5.67,4.93,4.93,0,*74
1498446140.32,65069,21.31,73842.3,5.67,4.85,4.93,0,*72
1498446141.57,65070,21.31,73844.8,5.69,4.97,4.97,0,*73
1498446142.8,65071,21.31,73846.0,5.67,4.93,4.93,0,*7C
1498446144.03,65072,21.31,73844.0,5.67,4.93,4.93,0,*7F
1498446145.26,65073,21.31,73846.8,5.67,4.93,4.93,0,*7E
1498446146.49,65074,21.31,73842.8,5.67,4.93,4.93,0,*79
1498446147.69,65075,21.31,73846.0,5.67,4.93,4.85,0,*7F
1498446148.92,65076,21.31,73844.5,5.67,4.93,4.93,0,*7B
1498446150.09,65077,21.31,73844.8,5.67,4.85,4.85,0,*7A
1498446151.26,65078,21.31,73846.3,5.67,4.85,4.85,0,*75
1498446152.49,65079,21.31,73844.5,5.67,4.93,4.93,0,*74
1498446153.66,65080,21.31,73846.5,5.63,4.89,4.81,0,*7E
1498446154.83,65081,21.31,73846.3,5.63,4.89,4.89,0,*77
1498446156.01,65082,21.31,73844.0,5.63,4.89,4.89,0,*74
1498446157.18,65083,21.31,73846.0,5.63,4.89,4.89,0,*75
1498446158.35,65084,21.31,73846.5,5.63,4.89,4.89,0,*72
1498446159.52,65085,21.31,73840.5,5.63,4.89,4.89,0,*73
1498446160.69,65086,21.31,73846.5,5.63,4.89,4.89,0,*70
1498446161.86,65087,21.31,73844.8,5.63,4.89,4.89,0,*71
1498446163.04,65088,21.31,73840.8,5.63,4.89,4.81,0,*76
1498446164.21,65089,21.31,73846.5,5.63,4.89,4.89,0,*7F
1498446165.38,65090,21.31,73848.3,5.63,4.89,4.89,0,*77
1498446166.55,65091,21.31,73846.3,5.63,4.89,4.89,0,*76
1498446167.72,65092,21.31,73848.5,5.63,4.89,4.89,0,*75
1498446168.9,65093,21.31,73844.0,5.63,4.89,4.89,0,*74
1498446170.07,65094,21.31,73848.3,5.63,4.89,4.89,0,*73
1498446171.26,65095,21.31,73844.0,5.61,4.89,4.89,0,*70
1498446172.46,65096,21.31,73846.0,5.63,4.93,4.89,0,*7A
1498446173.66,65097,21.31,73842.5,5.63,4.93,4.89,0,*7B
1498446174.89,65098,21.31,73844.0,5.63,4.93,4.93,0,*7F
1498446176.12,65099,21.31,73846.0,5.67,4.97,4.97,0,*7A
1498446177.37,65100,21.31,73848.3,5.69,5.01,5.01,0,*75
1498446178.6,65101,21.31,73844.0,5.67,4.97,4.97,0,*7A
1498446179.83,65102,21.31,73840.8,5.67,4.97,4.97,0,*79
1498446181.06,65103,21.31,73844.0,5.67,4.93,4.93,0,*78
1498446182.23,65104,21.31,73842.3,5.63,4.89,4.89,0,*7B
1498446183.4,65105,21.31,73850.0,5.63,4.81,4.89,0,*72
1498446184.6,65106,21.31,73846.8,5.67,4.85,4.93,0,*7A
1498446185.8,65107,21.31,73846.5,5.67,4.93,4.85,0,*7B
1498446186.97,65108,21.31,73846.8,5.63,4.89,4.89,0,*77
1498446188.15,65109,21.31,73846.8,5.63,4.89,4.89,0,*76
1498446189.32,65110,21.31,73848.0,5.63,4.89,4.89,0,*7E
1498446190.55,65111,21.31,73846.5,5.67,4.93,4.93,0,*7B
1498446191.72,65112,21.31,73850.5,5.63,4.81,4.89,0,*74
1498446192.91,65113,21.31,73844.0,5.61,4.89,4.89,0,*7F
1498446194.08,65114,21.31,73846.0,5.63,4.81,4.81,0,*7A
1498446195.25,65115,21.31,73844.0,5.63,4.89,4.89,0,*7B
1498446196.42,65116,21.31,73840.5,5.63,4.81,4.89,0,*70
1498446197.59,65117,21.31,73846.0,5.63,4.81,4.89,0,*71
1498446198.76,65118,21.31,73848.0,5.63,4.89,4.89,0,*76
1498446199.93,65119,21.31,73846.0,5.63,4.89,4.89,0,*77
1498446201.1,65120,21.31,73848.8,5.63,4.89,4.89,0,*7D
1498446202.27,65121,21.31,73846.3,5.63,4.81,4.89,0,*74
1498446203.44,65122,21.31,73848.8,5.63,4.81,4.89,0,*77
1498446204.61,65123,21.31,73850.3,5.63,4.89,4.89,0,*7E
1498446205.78,65124,21.31,73848.8,5.63,4.89,4.89,0,*79
1498446206.95,65125,21.31,73848.5,5.63,4.89,4.89,0,*78
1498446208.13,65126,21.31,73846.0,5.63,4.89,4.89,0,*7B
1498446209.3,65127,21.31,73844.3,5.63,4.81,4.89,0,*72
1498446210.47,65128,21.31,73850.8,5.63,4.89,4.89,0,*75
1498446211.64,65129,21.31,73848.3,5.63,4.89,4.89,0,*74
1498446212.83,65130,21.31,73848.5,5.61,4.89,4.89,0,*7E
1498446214.04,65131,21.31,73846.8,5.63,4.89,4.93,0,*76
1498446215.26,65132,21.31,73844.3,5.61,4.89,4.93,0,*77
1498446216.47,65133,21.31,73846.5,5.63,4.89,4.93,0,*74
1498446217.7,65134,21.31,73848.5,5.61,4.89,4.93,0,*71
1498446218.92,65135,21.31,73848.3,5.61,4.89,4.93,0,*70
1498446220.13,65136,21.31,73848.3,5.63,4.89,4.93,0,*71
1498446221.36,65137,21.31,73850.3,5.63,4.93,4.93,0,*7B
1498446222.59,65138,21.31,73848.8,5.63,4.93,4.93,0,*74
1498446223.82,65139,21.31,73848.0,5.63,4.93,4.93,0,*75
1498446225.02,65140,21.31,73848.3,5.63,4.89,4.93,0,*70
1498446226.22,65141,21.31,73850.0,5.63,4.89,4.93,0,*71
1498446227.43,65142,21.31,73846.8,5.63,4.89,4.93,0,*72
1498446228.6,65143,21.31,73848.3,5.63,4.89,4.89,0,*78
1498446229.79,65144,21.31,73846.8,5.61,4.89,4.89,0,*7D
1498446230.96,65145,21.31,73848.8,5.63,4.89,4.89,0,*7E
1498446232.14,65146,21.31,73848.5,5.63,4.89,4.89,0,*7D
1498446233.33,65147,21.31,73848.3,5.61,4.89,4.89,0,*7E
1498446234.53,65148,21.31,73846.8,5.61,4.89,4.81,0,*79
1498446235.7,65149,21.31,73850.8,5.63,4.81,4.81,0,*72
1498446236.89,65150,21.31,73848.3,5.61,4.81,4.89,0,*70
1498446238.06,65151,21.31,73846.8,5.63,4.89,4.89,0,*7B
1498446239.23,65152,21.31,73848.8,5.63,4.81,4.81,0,*78
1498446240.42,65153,21.31,73850.3,5.61,4.89,4.81,0,*73
1498446241.61,65154,21.31,73854.0,5.61,4.81,4.89,0,*74
1498446242.78,65155,21.31,73852.0,5.63,4.81,4.89,0,*77
1498446243.98,65156,21.31,73850.0,5.61,4.89,4.89,0,*7E
1498446245.14,65157,21.31,73852.3,5.63,4.81,4.81,0,*7D
1498446246.32,65158,21.31,73850.8,5.63,4.89,4.89,0,*72
1498446247.48,65159,21.31,73850.0,5.63,4.81,4.81,0,*73
1498446248.65,65160,21.31,73846.3,5.63,4.89,4.81,0,*71
1498446249.85,65161,21.31,73848.8,5.61,4.89,4.81,0,*72
1498446251.02,65162,21.31,73846.8,5.63,4.81,4.89,0,*73
1498446252.19,65163,21.31,73848.3,5.63,4.81,4.89,0,*72
1498446253.36,65164,21.31,73848.3,5.63,4.89,4.89,0,*7D
1498446254.55,65165,21.31,73848.8,5.61,4.89,4.81,0,*76
1498446255.74,65166,21.31,73850.0,5.61,4.81,4.81,0,*7D
1498446256.99,65167,21.31,73846.3,5.61,4.79,4.79,0,*7C
1498446258.24,65168,21.31,73848.5,5.61,4.79,4.71,0,*7B
1498446259.47,65169,21.31,73846.8,5.63,4.79,4.71,0,*78
1498446260.69,65170,21.31,73850.0,5.61,4.81,4.79,0,*7D
1498446261.94,65171,21.31,73848.3,5.61,4.79,4.71,0,*73
1498446263.19,65172,21.31,73848.3,5.61,4.67,4.67,0,*78
1498446264.44,65173,21.31,73848.5,5.61,4.59,4.59,0,*79
1498446265.67,65174,21.31,73848.5,5.61,4.59,4.57,0,*70
1498446266.85,65175,21.31,73850.5,5.59,4.53,4.53,0,*74
1498446268.07,65176,21.31,73850.5,5.61,4.57,4.59,0,*72
1498446269.25,65177,21.31,73846.8,5.59,4.53,4.57,0,*72
1498446270.49,65178,21.31,73848.0,5.61,4.67,4.67,0,*72
1498446271.74,65179,21.31,73844.8,5.61,4.59,4.59,0,*73
1498446272.95,65180,21.31,73846.5,5.59,4.57,4.63,0,*79
1498446274.17,65181,21.31,73850.5,5.59,4.67,4.63,0,*7B
1498446275.4,65182,21.31,73844.3,5.59,4.67,4.67,0,*7C
1498446276.63,65183,21.31,73848.3,5.59,4.63,4.63,0,*7D
1498446277.88,65184,21.31,73850.3,5.57,4.67,4.63,0,*70
1498446279.11,65185,21.31,73848.5,5.59,4.67,4.67,0,*7B
1498446280.34,65186,21.31,73844.8,5.59,4.67,4.75,0,*7B
1498446281.57,65187,21.31,73844.0,5.59,4.67,4.75,0,*7A
1498446282.83,65188,21.31,73850.0,5.57,4.75,4.67,0,*7B
1498446284.08,65189,21.31,73846.8,5.57,4.67,4.75,0,*7A
1498446285.33,65190,21.31,73844.8,5.57,4.67,4.67,0,*71
1498446286.58,65191,21.31,73846.5,5.57,4.67,4.67,0,*70
1498446287.84,65192,21.31,73848.5,5.57,4.75,4.67,0,*70
1498446289.06,65193,21.31,73848.8,5.59,4.67,4.63,0,*78
1498446290.32,65194,21.31,73848.3,5.57,4.63,4.75,0,*72
1498446291.57,65195,21.31,73848.8,5.57,4.67,4.67,0,*74
1498446292.82,65196,21.31,73848.5,5.57,4.67,4.67,0,*77
1498446294.07,65197,21.31,73848.5,5.57,4.67,4.67,0,*76
1498446295.33,65198,21.31,73852.5,5.57,4.67,4.75,0,*7A
1498446296.59,65199,21.31,73846.0,5.57,4.75,4.75,0,*78
1498446297.82,65200,21.31,73850.3,5.53,4.71,4.71,0,*7F
1498446299.05,65201,21.31,73850.5,5.53,4.71,4.63,0,*7D
1498446300.27,65202,21.31,73844.8,5.53,4.63,4.63,0,*7D
1498446301.5,65203,21.31,73844.8,5.53,4.71,4.63,0,*7F
1498446302.75,65204,21.31,73848.5,5.57,4.75,4.67,0,*7C
1498446304.01,65205,21.31,73848.5,5.57,4.67,4.67,0,*7E
1498446305.26,65206,21.31,73844.8,5.57,4.67,4.67,0,*7D
1498446306.51,65207,21.31,73850.0,5.57,4.67,4.67,0,*7C
1498446307.73,65208,21.31,73844.3,5.53,4.63,4.59,0,*7E
1498446308.98,65209,21.31,73846.5,5.57,4.67,4.63,0,*76
1498446310.2,65210,21.31,73850.5,5.53,4.59,4.59,0,*7E
1498446311.38,65211,21.31,73848.3,5.53,4.53,4.53,0,*7F
1498446312.57,65212,21.31,73848.3,5.51,4.49,4.49,0,*7E
1498446313.77,65213,21.31,73850.0,5.53,4.53,4.59,0,*77
1498446314.97,65214,21.31,73848.8,5.51,4.57,4.57,0,*78
1498446316.17,65215,21.31,73850.0,5.51,4.57,4.57,0,*79
1498446317.37,65216,21.31,73848.3,5.53,4.53,4.59,0,*72
1498446318.62,65217,21.31,73848.3,5.51,4.59,4.59,0,*7B
1498446319.87,65218,21.31,73848.8,5.51,4.67,4.67,0,*74
1498446321.12,65219,21.31,73850.8,5.51,4.67,4.59,0,*78
1498446322.35,65220,21.31,73848.0,5.53,4.63,4.71,0,*7E
1498446323.58,65221,21.31,73850.5,5.53,4.71,4.71,0,*7C
1498446324.83,65222,21.31,73846.5,5.51,4.67,4.59,0,*70
1498446326.08,65223,21.31,73848.8,5.51,4.59,4.59,0,*7C
1498446327.28,65224,21.31,73848.3,5.51,4.57,4.49,0,*74
1498446328.48,65225,21.31,73848.0,5.51,4.49,4.57,0,*75
1498446329.67,65226,21.31,73850.5,5.51,4.57,4.49,0,*76
1498446330.85,65227,21.31,73850.8,5.53,4.53,4.53,0,*7A
1498446332.05,65228,21.31,73850.8,5.51,4.49,4.57,0,*78
1498446333.24,65229,21.31,73846.0,5.51,4.57,4.49,0,*79
1498446334.44,65230,21.31,73846.0,5.51,4.49,4.49,0,*7E
1498446335.64,65231,21.31,73846.0,5.51,4.49,4.57,0,*70
1498446336.81,65232,21.31,73844.0,5.49,4.53,4.45,0,*72
1498446337.98,65233,21.31,73842.5,5.49,4.45,4.53,0,*73
1498446339.15,65234,21.31,73842.0,5.49,4.53,4.45,0,*74
1498446340.33,65235,21.31,73840.8,5.49,4.53,4.45,0,*75
1498446341.5,65236,21.31,73844.0,5.49,4.53,4.53,0,*71
1498446342.67,65237,21.31,73846.5,5.49,4.45,4.53,0,*77
1498446343.84,65238,21.31,73844.0,5.49,4.45,4.45,0,*7F
1498446345.01,65239,21.31,73846.5,5.49,4.45,4.53,0,*79
1498446346.18,65240,21.31,73850.0,5.49,4.53,4.53,0,*70
1498446347.35,65241,21.31,73844.8,5.49,4.57,4.53,0,*75
1498446348.53,65242,21.31,73846.8,5.45,4.57,4.53,0,*7A
1498446349.7,65243,21.31,73846.5,5.49,4.57,4.57,0,*73
1498446350.93,65244,21.31,73846.3,5.49,4.63,4.63,0,*74
1498446352.16,65245,21.31,73850.0,5.49,4.71,4.67,0,*72
1498446353.41,65246,21.31,73850.0,5.51,4.67,4.67,0,*7F
1498446354.63,65247,21.31,73848.8,5.49,4.63,4.63,0,*77
1498446355.86,65248,21.31,73850.3,5.49,4.63,4.67,0,*7C
1498446357.08,65249,21.31,73848.0,5.49,4.67,4.67,0,*79
1498446358.31,65250,21.31,73848.0,5.49,4.67,4.63,0,*75
1498446359.53,65251,21.31,73848.5,5.45,4.67,4.67,0,*7C
1498446360.76,65252,21.31,73850.0,5.49,4.59,4.63,0,*7A
1498446361.98,65253,21.31,73848.8,5.49,4.63,4.63,0,*72
1498446363.18,65254,21.31,73846.0,5.49,4.63,4.57,0,*72
1498446364.41,65255,21.31,73848.0,5.49,4.63,4.63,0,*74
1498446365.63,65256,21.31,73846.0,5.49,4.67,4.63,0,*73
1498446366.88,65257,21.31,73850.8,5.51,4.67,4.67,0,*7F
1498446368.14,65258,21.31,73848.3,5.51,4.71,4.67,0,*77
1498446369.37,65259,21.31,73848.3,5.49,4.67,4.67,0,*78
1498446370.59,65260,21.31,73848.3,5.45,4.67,4.63,0,*7A
1498446371.82,65261,21.31,73846.3,5.49,4.67,4.75,0,*70
1498446373.07,65262,21.31,73848.5,5.51,4.79,4.67,0,*76
1498446374.3,65263,21.31,73848.5,5.49,4.67,4.67,0,*71
1498446375.52,65264,21.31,73844.0,5.49,4.67,4.67,0,*76
1498446376.75,65265,21.31,73846.8,5.45,4.63,4.75,0,*7C
1498446377.97,65266,21.31,73848.8,5.49,4.67,4.67,0,*74
1498446379.2,65267,21.31,73844.3,5.45,4.67,4.67,0,*79
1498446380.43,65268,21.31,73844.8,5.45,4.63,4.67,0,*72
1498446381.65,65269,21.31,73844.8,5.45,4.67,4.67,0,*77
1498446382.88,65270,21.31,73846.0,5.45,4.67,4.75,0,*7C
1498446384.11,65271,21.31,73846.5,5.45,4.67,4.63,0,*7A
1498446385.34,65272,21.31,73848.0,5.49,4.75,4.63,0,*76
1498446386.56,65273,21.31,73850.0,5.49,4.67,4.67,0,*70
1498446387.79,65274,21.31,73848.8,5.45,4.75,4.67,0,*78
1498446389.01,65275,21.31,73850.0,5.45,4.63,4.63,0,*7A
1498446390.19,65276,21.31,73848.5,5.45,4.57,4.57,0,*79
1498446391.36,65277,21.31,73846.5,5.49,4.57,4.57,0,*74
1498446392.53,65278,21.31,73846.5,5.49,4.57,4.57,0,*7B
1498446393.71,65279,21.31,73846.3,5.49,4.57,4.57,0,*7A
1498446394.88,65280,21.31,73846.5,5.49,4.53,4.57,0,*78
1498446396.06,65281,21.31,73844.5,5.49,4.53,4.57,0,*79
1498446397.26,65282,21.31,73846.5,5.49,4.57,4.63,0,*79
1498446398.43,65283,21.31,73848.8,5.45,4.57,4.57,0,*73
1498446399.66,65284,21.31,73846.8,5.45,4.63,4.63,0,*74
1498446400.89,65285,21.31,73848.5,5.45,4.63,4.63,0,*75
1498446402.12,65286,21.31,73846.5,5.45,4.63,4.63,0,*76
1498446403.34,65287,21.31,73844.8,5.49,4.63,4.63,0,*7B
1498446404.56,65288,21.31,73846.5,5.49,4.63,4.63,0,*74
1498446405.82,65289,21.31,73846.5,5.51,4.59,4.63,0,*75
1498446407.05,65290,21.31,73844.3,5.45,4.67,4.67,0,*71
1498446408.28,65291,21.31,73844.3,5.45,4.63,4.67,0,*74
1498446409.5,65292,21.31,73846.5,5.49,4.63,4.63,0,*7F
1498446410.73,65293,21.31,73846.0,5.43,4.59,4.53,0,*7E
1498446411.96,65294,21.31,73844.0,5.45,4.63,4.67,0,*71
1498446413.16,65295,21.31,73844.8,5.45,4.63,4.57,0,*73
1498446414.33,65296,21.31,73848.3,5.49,4.57,4.57,0,*7B
1498446415.56,65297,21.31,73846.3,5.45,4.63,4.63,0,*76
1498446416.73,65298,21.31,73846.0,5.49,4.57,4.57,0,*75
1498446417.94,65299,21.31,73846.0,5.43,4.53,4.53,0,*7E
1498446419.14,65300,21.31,73846.0,5.43,4.53,4.53,0,*7F
1498446420.37,65301,21.31,73846.8,5.43,4.59,4.53,0,*74
1498446421.6,65302,21.31,73846.8,5.43,4.53,4.59,0,*77
1498446422.8,65303,21.31,73846.5,5.49,4.57,4.63,0,*71
1498446424.02,65304,21.31,73848.8,5.45,4.63,4.63,0,*7D
1498446425.22,65305,21.31,73852.0,5.49,4.63,4.57,0,*77
1498446426.45,65306,21.31,73846.8,5.45,4.75,4.67,0,*7C
1498446427.67,65307,21.31,73850.0,5.45,4.67,4.67,0,*7E
1498446428.9,65308,21.31,73848.5,5.49,4.67,4.67,0,*7D
1498446430.13,65309,21.31,73848.5,5.45,4.75,4.75,0,*70
1498446431.36,65310,21.31,73850.3,5.45,4.67,4.75,0,*7B
1498446432.62,65311,21.31,73846.8,5.43,4.63,4.71,0,*7C
1498446433.88,65312,21.31,73848.3,5.43,4.71,4.71,0,*7C
1498446435.14,65313,21.31,73850.5,5.43,4.71,4.63,0,*7E
1498446436.37,65314,21.31,73850.8,5.45,4.75,4.75,0,*7C
1498446437.6,65315,21.31,73848.5,5.45,4.67,4.67,0,*7D
1498446438.82,65316,21.31,73848.3,5.45,4.67,4.67,0,*7E
1498446440.05,65317,21.31,73848.3,5.45,4.75,4.75,0,*7F
1498446441.29,65318,21.31,73848.3,5.45,4.75,4.75,0,*70
1498446442.52,65319,21.31,73848.8,5.45,4.75,4.75,0,*71
1498446443.75,65320,21.31,73848.3,5.45,4.67,4.75,0,*78
1498446444.98,65321,21.31,73850.8,5.45,4.67,4.75,0,*79
1498446446.24,65322,21.31,73848.3,5.43,4.71,4.71,0,*7F
1498446447.47,65323,21.31,73848.3,5.45,4.67,4.67,0,*78
1498446448.7,65324,21.31,73850.5,5.45,4.75,4.75,0,*7F
1498446449.92,65325,21.31,73846.8,5.45,4.75,4.67,0,*7D
1498446451.15,65326,21.31,73850.3,5.45,4.67,4.75,0,*7E
1498446452.38,65327,21.31,73846.0,5.45,4.75,4.75,0,*7C
1498446453.61,65328,21.31,73850.0,5.45,4.75,4.67,0,*70
1498446454.84,65329,21.31,73848.0,5.45,4.75,4.67,0,*71
1498446456.07,65330,21.31,73848.3,5.45,4.67,4.75,0,*79
1498446457.3,65331,21.31,73848.5,5.45,4.75,4.75,0,*7B
1498446458.53,65332,21.31,73848.5,5.45,4.75,4.75,0,*78
1498446459.76,65333,21.31,73850.8,5.45,4.75,4.75,0,*79
1498446460.98,65334,21.31,73850.3,5.45,4.75,4.67,0,*7D
1498446462.21,65335,21.31,73852.5,5.45,4.67,4.67,0,*7F
1498446463.44,65336,21.31,73850.5,5.45,4.67,4.75,0,*7F
1498446464.66,65337,21.31,73848.8,5.49,4.67,4.67,0,*71
1498446465.89,65338,21.31,73850.3,5.45,4.67,4.67,0,*72
1498446467.12,65339,21.31,73850.0,5.45,4.67,4.67,0,*73
1498446468.32,65340,21.31,73850.5,5.45,4.67,4.57,0,*7E
1498446469.54,65341,21.31,73850.0,5.49,4.63,4.63,0,*70
1498446470.77,65342,21.31,73848.8,5.45,4.63,4.63,0,*7F
1498446472.0,65343,21.31,73848.8,5.45,4.67,4.67,0,*7E
1498446473.22,65344,21.31,73848.5,5.45,4.67,4.67,0,*79
1498446474.45,65345,21.25,73846.8,5.45,4.67,4.75,0,*7B
1498446475.71,65346,21.31,73850.0,5.43,4.71,4.63,0,*7E
1498446476.94,65347,21.31,73850.3,5.45,4.67,4.67,0,*7A
1498446478.17,65348,21.31,73848.5,5.45,4.75,4.75,0,*75
1498446479.4,65349,21.31,73848.5,5.45,4.67,4.75,0,*77
1498446480.63,65350,21.31,73848.3,5.45,4.67,4.75,0,*7F
1498446481.86,65351,21.31,73850.5,5.45,4.75,4.67,0,*7E
1498446483.09,65352,21.31,73846.0,5.45,4.75,4.75,0,*7E
1498446484.31,65353,21.31,73846.5,5.49,4.63,4.67,0,*77
1498446485.54,65354,21.31,73844.8,5.49,4.67,4.75,0,*77
1498446486.77,65355,21.31,73850.8,5.45,4.75,4.75,0,*79
1498446488.0,65356,21.25,73846.0,5.49,4.75,4.75,0,*76
1498446489.23,65357,21.25,73846.8,5.45,4.75,4.75,0,*7B
1498446490.45,65358,21.31,73850.3,5.49,4.75,4.75,0,*78
1498446491.68,65359,21.31,73848.3,5.45,4.75,4.75,0,*75
1498446492.91,65360,21.31,73850.3,5.45,4.75,4.75,0,*7F
1498446494.14,65361,21.31,73846.8,5.45,4.75,4.75,0,*7E
1498446495.38,65362,21.31,73848.3,5.45,4.75,4.75,0,*7D
1498446496.6,65363,21.31,73846.0,5.49,4.75,4.79,0,*7C
1498446497.83,65364,21.31,73846.3,5.45,4.75,4.79,0,*77
1498446499.05,65365,21.25,73844.3,5.45,4.75,4.79,0,*76
1498446500.28,65366,21.31,73844.5,5.45,4.75,4.75,0,*79
1498446501.51,65367,21.31,73846.0,5.45,4.75,4.75,0,*78
1498446502.74,65368,21.31,73848.8,5.45,4.67,4.75,0,*74
1498446503.97,65369,21.31,73848.0,5.45,4.67,4.67,0,*76
1498446505.17,65370,21.31,73846.3,5.49,4.57,4.63,0,*75
1498446506.34,65371,21.31,73846.5,5.45,4.53,4.53,0,*7F
1498446507.52,65372,21.31,73844.5,5.45,4.53,4.53,0,*7C
1498446508.7,65373,21.31,73846.8,5.49,4.53,4.53,0,*71
1498446509.87,65374,21.31,73848.3,5.45,4.53,4.53,0,*7A
1498446511.04,65375,21.31,73848.5,5.49,4.53,4.45,0,*70
1498446512.22,65376,21.31,73846.5,5.45,4.45,4.53,0,*7F
1498446513.41,65377,21.31,73848.3,5.43,4.49,4.49,0,*7F
1498446514.61,65378,21.31,73846.0,5.43,4.49,4.53,0,*7B
1498446515.78,65379,21.25,73846.8,5.41,4.49,4.53,0,*78
1498446517.01,65380,21.31,73846.5,5.43,4.59,4.53,0,*7D
1498446518.24,65381,21.31,73848.3,5.43,4.59,4.53,0,*7C
1498446519.49,65382,21.31,73850.3,5.43,4.59,4.59,0,*75
1498446520.75,65383,21.31,73846.0,5.43,4.63,4.63,0,*74
1498446521.98,65384,21.31,73846.0,5.45,4.67,4.67,0,*75
1498446523.23,65385,21.25,73846.5,5.43,4.59,4.63,0,*7B
1498446524.49,65386,21.31,73846.5,5.43,4.63,4.71,0,*72
1498446525.75,65387,21.31,73844.8,5.43,4.63,4.71,0,*73
1498446527.0,65388,21.31,73844.5,5.43,4.63,4.63,0,*7F
1498446528.27,65389,21.31,73850.0,5.43,4.71,4.71,0,*7E
1498446529.52,65390,21.31,73846.8,5.43,4.63,4.63,0,*76
1498446530.77,65391,21.31,73846.0,5.43,4.63,4.59,0,*7E